User: anonymous   Login
Location: Krakow
(50.0830°N, 19.9170°E)
Time: 17:34:21
(UTC+02:00)
Language:

A-11 Canister half - Orbit

View from above orbital plane
View from above orbital plane
View from above satellite
View from above satellite

Ground track
Ground track

The orbit data is extracted from the following two-line orbital elements,

1 00051U 60009C   24206.85457909 -.00000134  00000-0 -47735-3 0  9991
2 00051  47.2149  31.6147 0106194 298.1931  60.8166 12.18329415846765
Epoch (UTC): 24 July 2024 20:30:35
Eccentricity: 0.0106194
inclination: 47.2149°
perigee height: 1515 km
apogee height: 1684 km
right ascension of ascending node: 31.6147°
argument of perigee: 298.1931°
revolutions per day: 12.18329415
mean anomaly at epoch: 60.8166°
orbit number at epoch: 84676

The dashed part of the orbit path shows where the satellite is in the earth's shadow,  

DLR